Location: Dumpton Point
(51.3500°N, 1.4433°E)
Time: 17:31:20
(UTC+00:00)

Vanguard 3 - Pass Details

Date: 28 April 2021
Orbit: 507 x 3262 km, 33.4° (Epoch: 16 May)

Event Time Altitude Azimuth Distance (km) Brightness Sun altitude
Rises 23:16:33 0° 233° (SW) 5,220 11.0 -23.7°
Enters shadow 23:18:41 - 228° (SW) 4,576 10.7 -23.8°
Reaches altitude 10° 23:22:01 10° 217° (SW) 3,610 - -23.9°
Maximum altitude 23:26:57 16° 182° (S) 2,580 - -24.0°
Drops below altitude 10° 23:30:43 10° 145° (SE) 2,603 - -24.0°
Sets 23:33:45 0° 123° (ESE) 3,213 - -24.1°
